Year,Month,Day,Hour,Minute,Value (Times are PST for temperature in C)
2019,08,01,00,00,17.60
2019,08,01,00,01,17.60
2019,08,01,00,02,17.60
2019,08,01,00,03,17.60
2019,08,01,00,04,17.60
2019,08,01,00,05,17.70
2019,08,01,00,06,17.60
2019,08,01,00,07,17.70
2019,08,01,00,08,17.60
2019,08,01,00,09,17.60
2019,08,01,00,10,17.60
2019,08,01,00,11,17.60
2019,08,01,00,12,17.60
2019,08,01,00,13,17.50
2019,08,01,00,14,17.60
2019,08,01,00,15,17.50
2019,08,01,00,16,17.50
2019,08,01,00,17,17.50
2019,08,01,00,18,17.50
2019,08,01,00,19,17.50
2019,08,01,00,20,17.50
2019,08,01,00,21,17.50
2019,08,01,00,22,17.40
2019,08,01,00,23,17.40
2019,08,01,00,24,17.40
2019,08,01,00,25,17.40
2019,08,01,00,26,17.40
2019,08,01,00,27,17.40
2019,08,01,00,28,17.40
2019,08,01,00,29,17.40
2019,08,01,00,30,17.40
2019,08,01,00,31,17.40
2019,08,01,00,32,17.40
2019,08,01,00,33,17.40
2019,08,01,00,34,17.40
2019,08,01,00,35,17.40
2019,08,01,00,36,17.40
2019,08,01,00,37,17.40
2019,08,01,00,38,17.40
2019,08,01,00,39,17.40
2019,08,01,00,40,17.40
2019,08,01,00,41,17.40
2019,08,01,00,42,17.40
2019,08,01,00,43,17.40
2019,08,01,00,44,17.40
2019,08,01,00,45,17.40
2019,08,01,00,46,17.40
2019,08,01,00,47,17.40
2019,08,01,00,48,17.40
2019,08,01,00,49,17.40
2019,08,01,00,50,17.40
2019,08,01,00,51,17.40
2019,08,01,00,52,17.30
2019,08,01,00,53,17.30
2019,08,01,00,54,17.30
2019,08,01,00,55,17.30
2019,08,01,00,56,17.30
2019,08,01,00,57,17.30
2019,08,01,00,58,17.30
2019,08,01,00,59,17.30
2019,08,01,01,00,17.30
2019,08,01,01,01,17.20
2019,08,01,01,02,17.20
2019,08,01,01,03,17.20
2019,08,01,01,04,17.20
2019,08,01,01,05,17.20
2019,08,01,01,06,17.20
2019,08,01,01,07,17.20
2019,08,01,01,08,17.20
2019,08,01,01,09,17.20
2019,08,01,01,10,17.20
2019,08,01,01,11,17.20
2019,08,01,01,12,17.10
2019,08,01,01,13,17.10
2019,08,01,01,14,17.10
2019,08,01,01,15,17.10
2019,08,01,01,16,17.10
2019,08,01,01,17,17.10
2019,08,01,01,18,17.10
2019,08,01,01,19,17.10
2019,08,01,01,20,17.10
2019,08,01,01,21,17.10
2019,08,01,01,22,17.10
2019,08,01,01,23,17.10
2019,08,01,01,24,17.10
2019,08,01,01,25,17.10
2019,08,01,01,26,17.10
2019,08,01,01,27,17.00
2019,08,01,01,28,17.10
2019,08,01,01,29,17.10
2019,08,01,01,30,17.10
2019,08,01,01,31,17.10
2019,08,01,01,32,17.00
2019,08,01,01,33,17.10
2019,08,01,01,34,17.00
2019,08,01,01,35,17.00
2019,08,01,01,36,17.00
2019,08,01,01,37,17.00
2019,08,01,01,38,17.00
2019,08,01,01,39,17.00
2019,08,01,01,40,17.00
2019,08,01,01,41,17.00
2019,08,01,01,42,17.00
2019,08,01,01,43,17.00
2019,08,01,01,44,17.00
2019,08,01,01,45,17.00
2019,08,01,01,46,17.00
2019,08,01,01,47,17.00
2019,08,01,01,48,17.00
2019,08,01,01,49,17.00
2019,08,01,01,50,17.00
2019,08,01,01,51,17.00
2019,08,01,01,52,17.00
2019,08,01,01,53,17.00
2019,08,01,01,54,17.00
2019,08,01,01,55,17.00
2019,08,01,01,56,17.00
2019,08,01,01,57,17.00
2019,08,01,01,58,17.00
2019,08,01,01,59,17.00
2019,08,01,02,00,17.00
2019,08,01,02,01,17.00
2019,08,01,02,02,17.00
2019,08,01,02,03,17.00
2019,08,01,02,04,17.00
2019,08,01,02,05,16.90
2019,08,01,02,06,17.00
2019,08,01,02,07,16.90
2019,08,01,02,08,16.90
2019,08,01,02,09,16.90
2019,08,01,02,10,16.90
2019,08,01,02,11,16.90
2019,08,01,02,12,16.90
2019,08,01,02,13,16.90
2019,08,01,02,14,17.00
2019,08,01,02,15,17.00
2019,08,01,02,16,16.90
2019,08,01,02,17,16.90
2019,08,01,02,18,16.90
2019,08,01,02,19,16.90
2019,08,01,02,20,16.90
2019,08,01,02,21,16.90
2019,08,01,02,22,16.90
2019,08,01,02,23,16.90
2019,08,01,02,24,16.90
2019,08,01,02,25,16.90
2019,08,01,02,26,16.90
2019,08,01,02,27,16.90
2019,08,01,02,28,16.90
2019,08,01,02,29,16.90
2019,08,01,02,30,16.90
2019,08,01,02,31,16.90
2019,08,01,02,32,16.90
2019,08,01,02,33,16.90
2019,08,01,02,34,16.90
2019,08,01,02,35,16.90
2019,08,01,02,36,16.90
2019,08,01,02,37,16.90
2019,08,01,02,38,16.80
2019,08,01,02,39,16.80
2019,08,01,02,40,16.80
2019,08,01,02,41,16.80
2019,08,01,02,42,16.80
2019,08,01,02,43,16.80
2019,08,01,02,44,16.80
2019,08,01,02,45,16.80
2019,08,01,02,46,16.80
2019,08,01,02,47,16.80
2019,08,01,02,48,16.80
2019,08,01,02,49,16.80
2019,08,01,02,50,16.80
2019,08,01,02,51,16.80
2019,08,01,02,52,16.80
2019,08,01,02,53,16.80
2019,08,01,02,54,16.80
2019,08,01,02,55,16.80
2019,08,01,02,56,16.80
2019,08,01,02,57,16.80
2019,08,01,02,58,16.80
2019,08,01,02,59,16.70
2019,08,01,03,00,16.70
2019,08,01,03,01,16.70
2019,08,01,03,02,16.70
2019,08,01,03,03,16.70
2019,08,01,03,04,16.70
2019,08,01,03,05,16.70
2019,08,01,03,06,16.70
2019,08,01,03,07,16.70
2019,08,01,03,08,16.70
2019,08,01,03,09,16.60
2019,08,01,03,10,16.60
2019,08,01,03,11,16.60
2019,08,01,03,12,16.60
2019,08,01,03,13,16.60
2019,08,01,03,14,16.60
2019,08,01,03,15,16.60
2019,08,01,03,16,16.60
2019,08,01,03,17,16.50
2019,08,01,03,18,16.50
2019,08,01,03,19,16.50
2019,08,01,03,20,16.50
2019,08,01,03,21,16.50
2019,08,01,03,22,16.50
2019,08,01,03,23,16.50
2019,08,01,03,24,16.50
2019,08,01,03,25,16.50
2019,08,01,03,26,16.40
2019,08,01,03,27,16.40
2019,08,01,03,28,16.40
2019,08,01,03,29,16.40
2019,08,01,03,30,16.40
2019,08,01,03,31,16.40
2019,08,01,03,32,16.40
2019,08,01,03,33,16.40
2019,08,01,03,34,16.30
2019,08,01,03,35,16.30
2019,08,01,03,36,16.30
2019,08,01,03,37,16.30
2019,08,01,03,38,16.30
2019,08,01,03,39,16.30
2019,08,01,03,40,16.30
2019,08,01,03,41,16.30
2019,08,01,03,42,16.30
2019,08,01,03,43,16.30
2019,08,01,03,44,16.30
2019,08,01,03,45,16.30
2019,08,01,03,46,16.30
2019,08,01,03,47,16.30
2019,08,01,03,48,16.30
2019,08,01,03,49,16.30
2019,08,01,03,50,16.30
2019,08,01,03,51,16.30
2019,08,01,03,52,16.30
2019,08,01,03,53,16.30
2019,08,01,03,54,16.30
2019,08,01,03,55,16.30
2019,08,01,03,56,16.30
2019,08,01,03,57,16.30
2019,08,01,03,58,16.30
2019,08,01,03,59,16.30
2019,08,01,04,00,16.30
2019,08,01,04,01,16.20
2019,08,01,04,02,16.20
2019,08,01,04,03,16.30
2019,08,01,04,04,16.20
2019,08,01,04,05,16.20
2019,08,01,04,06,16.20
2019,08,01,04,07,16.20
2019,08,01,04,08,16.20
2019,08,01,04,09,16.20
2019,08,01,04,10,16.20
2019,08,01,04,11,16.20
2019,08,01,04,12,16.20
2019,08,01,04,13,16.20
2019,08,01,04,14,16.20
2019,08,01,04,15,16.20
2019,08,01,04,16,16.20
2019,08,01,04,17,16.20
2019,08,01,04,18,16.20
2019,08,01,04,19,16.20
2019,08,01,04,20,16.20
2019,08,01,04,21,16.20
2019,08,01,04,22,16.20
2019,08,01,04,23,16.20
2019,08,01,04,24,16.20
2019,08,01,04,25,16.20
2019,08,01,04,26,16.20
2019,08,01,04,27,16.20
2019,08,01,04,28,16.20
2019,08,01,04,29,16.20
2019,08,01,04,30,16.20
2019,08,01,04,31,16.20
2019,08,01,04,32,16.20
2019,08,01,04,33,16.20
2019,08,01,04,34,16.20
2019,08,01,04,35,16.20
2019,08,01,04,36,16.20
2019,08,01,04,37,16.20
2019,08,01,04,38,16.20
2019,08,01,04,39,16.20
2019,08,01,04,40,16.20
2019,08,01,04,41,16.20
2019,08,01,04,42,16.20
2019,08,01,04,43,16.20
2019,08,01,04,44,16.20
2019,08,01,04,45,16.10
2019,08,01,04,46,16.10
2019,08,01,04,47,16.10
2019,08,01,04,48,16.10
2019,08,01,04,49,16.10
2019,08,01,04,50,16.10
2019,08,01,04,51,16.10
2019,08,01,04,52,16.10
2019,08,01,04,53,16.10
2019,08,01,04,54,16.10
2019,08,01,04,55,16.10
2019,08,01,04,56,16.10
2019,08,01,04,57,16.10
2019,08,01,04,58,16.10
2019,08,01,04,59,16.10
2019,08,01,05,00,16.10
2019,08,01,05,01,16.00
2019,08,01,05,02,16.00
2019,08,01,05,03,16.00
2019,08,01,05,04,16.00
2019,08,01,05,05,16.00
2019,08,01,05,06,16.00
2019,08,01,05,07,16.00
2019,08,01,05,08,16.00
2019,08,01,05,09,16.00
2019,08,01,05,10,16.00
2019,08,01,05,11,16.00
2019,08,01,05,12,15.90
2019,08,01,05,13,16.00
2019,08,01,05,14,15.90
2019,08,01,05,15,15.90
2019,08,01,05,16,15.90
2019,08,01,05,17,16.00
2019,08,01,05,18,16.00
2019,08,01,05,19,16.00
2019,08,01,05,20,16.00
2019,08,01,05,21,15.90
2019,08,01,05,22,15.90
2019,08,01,05,23,15.90
2019,08,01,05,24,15.90
2019,08,01,05,25,15.90
2019,08,01,05,26,15.90
2019,08,01,05,27,15.90
2019,08,01,05,28,15.90
2019,08,01,05,29,15.90
2019,08,01,05,30,15.90
2019,08,01,05,31,15.90
2019,08,01,05,32,15.90
2019,08,01,05,33,15.90
2019,08,01,05,34,15.90
2019,08,01,05,35,15.90
2019,08,01,05,36,15.90
2019,08,01,05,37,15.90
2019,08,01,05,38,15.90
2019,08,01,05,39,15.90
2019,08,01,05,40,15.90
2019,08,01,05,41,15.90
2019,08,01,05,42,15.90
2019,08,01,05,43,15.90
2019,08,01,05,44,15.90
2019,08,01,05,45,15.90
2019,08,01,05,46,15.90
2019,08,01,05,47,15.80
2019,08,01,05,48,15.90
2019,08,01,05,49,15.90
2019,08,01,05,50,15.90
2019,08,01,05,51,15.90
2019,08,01,05,52,15.90
2019,08,01,05,53,15.80
2019,08,01,05,54,15.80
2019,08,01,05,55,15.80
2019,08,01,05,56,15.80
2019,08,01,05,57,15.80
2019,08,01,05,58,15.80
2019,08,01,05,59,15.80
2019,08,01,06,00,15.80
2019,08,01,06,01,15.80
2019,08,01,06,02,15.80
2019,08,01,06,03,15.80
2019,08,01,06,04,15.80
2019,08,01,06,05,15.80
2019,08,01,06,06,15.80
2019,08,01,06,07,15.80
2019,08,01,06,08,15.80
2019,08,01,06,09,15.80
2019,08,01,06,10,15.80
2019,08,01,06,11,15.80
2019,08,01,06,12,15.80
2019,08,01,06,13,15.80
2019,08,01,06,14,15.80
2019,08,01,06,15,15.80
2019,08,01,06,16,15.80
2019,08,01,06,17,15.80
2019,08,01,06,18,15.80
2019,08,01,06,19,15.80
2019,08,01,06,20,15.80
2019,08,01,06,21,15.80
2019,08,01,06,22,15.80
2019,08,01,06,23,15.80
2019,08,01,06,24,15.80
2019,08,01,06,25,15.80
2019,08,01,06,26,15.80
2019,08,01,06,27,15.80
2019,08,01,06,28,15.80
2019,08,01,06,29,15.80
2019,08,01,06,30,15.80
2019,08,01,06,31,15.80
2019,08,01,06,32,15.80
2019,08,01,06,33,15.80
2019,08,01,06,34,15.80
2019,08,01,06,35,15.90
2019,08,01,06,36,15.90
2019,08,01,06,37,15.90
2019,08,01,06,38,15.90
2019,08,01,06,39,15.90
2019,08,01,06,40,15.90
2019,08,01,06,41,15.90
2019,08,01,06,42,15.90
2019,08,01,06,43,16.00
2019,08,01,06,44,16.00
2019,08,01,06,45,16.00
2019,08,01,06,46,16.00
2019,08,01,06,47,16.00
2019,08,01,06,48,16.10
2019,08,01,06,49,16.10
2019,08,01,06,50,16.10
2019,08,01,06,51,16.10
2019,08,01,06,52,16.10
2019,08,01,06,53,16.10
2019,08,01,06,54,16.10
2019,08,01,06,55,16.10
2019,08,01,06,56,16.10
2019,08,01,06,57,16.10
2019,08,01,06,58,16.10
2019,08,01,06,59,16.10
2019,08,01,07,00,16.10
2019,08,01,07,01,16.10
2019,08,01,07,02,16.10
2019,08,01,07,03,16.10
2019,08,01,07,04,16.10
2019,08,01,07,05,16.10
2019,08,01,07,06,16.10
2019,08,01,07,07,16.10
2019,08,01,07,08,16.10
2019,08,01,07,09,16.10
2019,08,01,07,10,16.10
2019,08,01,07,11,16.10
2019,08,01,07,12,16.10
2019,08,01,07,13,16.10
2019,08,01,07,14,16.10
2019,08,01,07,15,16.10
2019,08,01,07,16,16.10
2019,08,01,07,17,16.10
2019,08,01,07,18,16.10
2019,08,01,07,19,16.10
2019,08,01,07,20,16.10
2019,08,01,07,21,16.10
2019,08,01,07,22,16.10
2019,08,01,07,23,16.10
2019,08,01,07,24,16.10
2019,08,01,07,25,16.10
2019,08,01,07,26,16.20
2019,08,01,07,27,16.10
2019,08,01,07,28,16.20
2019,08,01,07,29,16.20
2019,08,01,07,30,16.20
2019,08,01,07,31,16.20
2019,08,01,07,32,16.20
2019,08,01,07,33,16.20
2019,08,01,07,34,16.20
2019,08,01,07,35,16.20
2019,08,01,07,36,16.20
2019,08,01,07,37,16.20
2019,08,01,07,38,16.20
2019,08,01,07,39,16.20
2019,08,01,07,40,16.20
2019,08,01,07,41,16.30
2019,08,01,07,42,16.30
2019,08,01,07,43,16.30
2019,08,01,07,44,16.30
2019,08,01,07,45,16.30
2019,08,01,07,46,16.30
2019,08,01,07,47,16.30
2019,08,01,07,48,16.30
2019,08,01,07,49,16.30
2019,08,01,07,50,16.40
2019,08,01,07,51,16.40
2019,08,01,07,52,16.40
2019,08,01,07,53,16.40
2019,08,01,07,54,16.40
2019,08,01,07,55,16.50
2019,08,01,07,56,16.50
2019,08,01,07,57,16.50
2019,08,01,07,58,16.50
2019,08,01,07,59,16.60
2019,08,01,08,00,16.60
2019,08,01,08,01,16.60
2019,08,01,08,02,16.60
2019,08,01,08,03,16.60
2019,08,01,08,04,16.60
2019,08,01,08,05,16.70
2019,08,01,08,06,16.70
2019,08,01,08,07,16.70
2019,08,01,08,08,16.70
2019,08,01,08,09,16.70
2019,08,01,08,10,16.80
2019,08,01,08,11,16.80
2019,08,01,08,12,16.80
2019,08,01,08,13,16.80
2019,08,01,08,14,16.80
2019,08,01,08,15,16.80
2019,08,01,08,16,16.90
2019,08,01,08,17,16.90
2019,08,01,08,18,16.90
2019,08,01,08,19,16.90
2019,08,01,08,20,16.90
2019,08,01,08,21,16.90
2019,08,01,08,22,16.90
2019,08,01,08,23,16.80
2019,08,01,08,24,16.80
2019,08,01,08,25,16.80
2019,08,01,08,26,16.90
2019,08,01,08,27,16.80
2019,08,01,08,28,16.90
2019,08,01,08,29,16.90
2019,08,01,08,30,16.90
2019,08,01,08,31,16.90
2019,08,01,08,32,16.90
2019,08,01,08,33,16.90
2019,08,01,08,34,17.00
2019,08,01,08,35,17.00
2019,08,01,08,36,17.00
2019,08,01,08,37,17.00
2019,08,01,08,38,17.00
2019,08,01,08,39,17.00
2019,08,01,08,40,17.10
2019,08,01,08,41,17.10
2019,08,01,08,42,17.10
2019,08,01,08,43,17.10
2019,08,01,08,44,17.10
2019,08,01,08,45,17.10
2019,08,01,08,46,17.10
2019,08,01,08,47,17.10
2019,08,01,08,48,17.20
2019,08,01,08,49,17.20
2019,08,01,08,50,17.20
2019,08,01,08,51,17.20
2019,08,01,08,52,17.20
2019,08,01,08,53,17.20
2019,08,01,08,54,17.30
2019,08,01,08,55,17.30
2019,08,01,08,56,17.30
2019,08,01,08,57,17.40
2019,08,01,08,58,17.40
2019,08,01,08,59,17.40
2019,08,01,09,00,17.40
2019,08,01,09,01,17.40
2019,08,01,09,02,17.50
2019,08,01,09,03,17.50
2019,08,01,09,04,17.50
2019,08,01,09,05,17.50
2019,08,01,09,06,17.50
2019,08,01,09,07,17.50
2019,08,01,09,08,17.50
2019,08,01,09,09,17.50
2019,08,01,09,10,17.50
2019,08,01,09,11,17.40
2019,08,01,09,12,17.50
2019,08,01,09,13,17.40
2019,08,01,09,14,17.40
2019,08,01,09,15,17.40
2019,08,01,09,16,17.40
2019,08,01,09,17,17.40
2019,08,01,09,18,17.40
2019,08,01,09,19,17.40
2019,08,01,09,20,17.40
2019,08,01,09,21,17.30
2019,08,01,09,22,17.30
2019,08,01,09,23,17.30
2019,08,01,09,24,17.20
2019,08,01,09,25,17.20
2019,08,01,09,26,17.20
2019,08,01,09,27,17.20
2019,08,01,09,28,17.10
2019,08,01,09,29,17.10
2019,08,01,09,30,17.10
2019,08,01,09,31,17.00
2019,08,01,09,32,17.00
2019,08,01,09,33,16.90
2019,08,01,09,34,16.90
2019,08,01,09,35,16.80
2019,08,01,09,36,16.80
2019,08,01,09,37,16.80
2019,08,01,09,38,16.80
2019,08,01,09,39,16.80
2019,08,01,09,40,16.80
2019,08,01,09,41,16.80
2019,08,01,09,42,16.80
2019,08,01,09,43,16.70
2019,08,01,09,44,16.70
2019,08,01,09,45,16.70
2019,08,01,09,46,16.70
2019,08,01,09,47,16.60
2019,08,01,09,48,16.60
2019,08,01,09,49,16.60
2019,08,01,09,50,16.50
2019,08,01,09,51,16.50
2019,08,01,09,52,16.40
2019,08,01,09,53,16.40
2019,08,01,09,54,16.30
2019,08,01,09,55,16.30
2019,08,01,09,56,16.20
2019,08,01,09,57,16.20
2019,08,01,09,58,16.20
2019,08,01,09,59,16.20
2019,08,01,10,00,16.20
2019,08,01,10,01,16.20
2019,08,01,10,02,16.20
2019,08,01,10,03,16.20
2019,08,01,10,04,16.20
2019,08,01,10,05,16.20
2019,08,01,10,06,16.20
2019,08,01,10,07,16.20
2019,08,01,10,08,16.20
2019,08,01,10,09,16.20
2019,08,01,10,10,16.30
2019,08,01,10,11,16.30
2019,08,01,10,12,16.30
2019,08,01,10,13,16.30
2019,08,01,10,14,16.30
2019,08,01,10,15,16.40
2019,08,01,10,16,16.40
2019,08,01,10,17,16.40
2019,08,01,10,18,16.40
2019,08,01,10,19,16.40
2019,08,01,10,20,16.40
2019,08,01,10,21,16.40
2019,08,01,10,22,16.40
2019,08,01,10,23,16.50
2019,08,01,10,24,16.50
2019,08,01,10,25,16.50
2019,08,01,10,26,16.50
2019,08,01,10,27,16.50
2019,08,01,10,28,16.50
2019,08,01,10,29,16.50
2019,08,01,10,30,16.50
2019,08,01,10,31,16.50
2019,08,01,10,32,16.50
2019,08,01,10,33,16.50
2019,08,01,10,34,16.50
2019,08,01,10,35,16.50
2019,08,01,10,36,16.50
2019,08,01,10,37,16.60
2019,08,01,10,38,16.60
2019,08,01,10,39,16.60
2019,08,01,10,40,16.60
2019,08,01,10,41,16.70
2019,08,01,10,42,16.70
2019,08,01,10,43,16.70
2019,08,01,10,44,16.70
2019,08,01,10,45,16.70
2019,08,01,10,46,16.70
2019,08,01,10,47,16.70
2019,08,01,10,48,16.70
2019,08,01,10,49,16.80
2019,08,01,10,50,16.80
2019,08,01,10,51,16.80
2019,08,01,10,52,16.80
2019,08,01,10,53,16.80
2019,08,01,10,54,16.80
2019,08,01,10,55,16.90
2019,08,01,10,56,16.80
2019,08,01,10,57,16.80
2019,08,01,10,58,16.90
2019,08,01,10,59,16.80
2019,08,01,11,00,16.90
2019,08,01,11,01,16.80
2019,08,01,11,02,16.90
2019,08,01,11,03,16.90
2019,08,01,11,04,16.90
2019,08,01,11,05,16.90
2019,08,01,11,06,16.90
2019,08,01,11,07,16.90
2019,08,01,11,08,16.90
2019,08,01,11,09,16.90
2019,08,01,11,10,17.00
2019,08,01,11,11,17.00
2019,08,01,11,12,17.00
2019,08,01,11,13,17.00
2019,08,01,11,14,17.00
2019,08,01,11,15,17.00
2019,08,01,11,16,16.90
2019,08,01,11,17,16.90
2019,08,01,11,18,16.90
2019,08,01,11,19,16.90
2019,08,01,11,20,16.90
2019,08,01,11,21,16.80
2019,08,01,11,22,16.90
2019,08,01,11,23,16.80
2019,08,01,11,24,16.80
2019,08,01,11,25,16.80
2019,08,01,11,26,16.80
2019,08,01,11,27,16.90
2019,08,01,11,28,16.90
2019,08,01,11,29,16.90
2019,08,01,11,30,16.90
2019,08,01,11,31,16.90
2019,08,01,11,32,16.90
2019,08,01,11,33,16.80
2019,08,01,11,34,16.80
2019,08,01,11,35,16.80
2019,08,01,11,36,16.70
2019,08,01,11,37,16.70
2019,08,01,11,38,16.70
2019,08,01,11,39,16.70
2019,08,01,11,40,16.70
2019,08,01,11,41,16.70
2019,08,01,11,42,16.80
2019,08,01,11,43,16.70
2019,08,01,11,44,16.70
2019,08,01,11,45,16.70
2019,08,01,11,46,16.70
2019,08,01,11,47,16.70
2019,08,01,11,48,16.70
2019,08,01,11,49,16.70
2019,08,01,11,50,16.70
2019,08,01,11,51,16.70
2019,08,01,11,52,16.70
2019,08,01,11,53,16.70
2019,08,01,11,54,16.70
2019,08,01,11,55,16.80
2019,08,01,11,56,16.80
2019,08,01,11,57,16.80
2019,08,01,11,58,16.80
2019,08,01,11,59,16.80
2019,08,01,12,00,16.80
2019,08,01,12,01,16.80
2019,08,01,12,02,16.80
2019,08,01,12,03,16.80
2019,08,01,12,04,16.80
2019,08,01,12,05,16.80
2019,08,01,12,06,16.80
2019,08,01,12,07,16.80
2019,08,01,12,08,16.80
2019,08,01,12,09,16.80
2019,08,01,12,10,16.80
2019,08,01,12,11,16.80
2019,08,01,12,12,16.80
2019,08,01,12,13,16.80
2019,08,01,12,14,16.80
2019,08,01,12,15,16.80
2019,08,01,12,16,16.80
2019,08,01,12,17,16.80
2019,08,01,12,18,16.80
2019,08,01,12,19,16.80
2019,08,01,12,20,16.70
2019,08,01,12,21,16.80
2019,08,01,12,22,16.80
2019,08,01,12,23,16.80
2019,08,01,12,24,16.70
2019,08,01,12,25,16.80
2019,08,01,12,26,16.80
2019,08,01,12,27,16.80
2019,08,01,12,28,16.80
2019,08,01,12,29,16.80
2019,08,01,12,30,16.80
2019,08,01,12,31,16.80
2019,08,01,12,32,16.80
2019,08,01,12,33,16.80
2019,08,01,12,34,16.80
2019,08,01,12,35,16.80
2019,08,01,12,36,16.80
2019,08,01,12,37,16.90
2019,08,01,12,38,16.90
2019,08,01,12,39,17.00
2019,08,01,12,40,17.00
2019,08,01,12,41,17.00
2019,08,01,12,42,17.10
2019,08,01,12,43,17.10
2019,08,01,12,44,17.10
2019,08,01,12,45,17.10
2019,08,01,12,46,17.20
2019,08,01,12,47,17.20
2019,08,01,12,48,17.20
2019,08,01,12,49,17.30
2019,08,01,12,50,17.30
2019,08,01,12,51,17.30
2019,08,01,12,52,17.30
2019,08,01,12,53,17.30
2019,08,01,12,54,17.40
2019,08,01,12,55,17.40
2019,08,01,12,56,17.40
2019,08,01,12,57,17.40
2019,08,01,12,58,17.40
2019,08,01,12,59,17.50
2019,08,01,13,00,17.40
2019,08,01,13,01,17.50
2019,08,01,13,02,17.50
2019,08,01,13,03,17.50
2019,08,01,13,04,17.50
2019,08,01,13,05,17.50
2019,08,01,13,06,17.50
2019,08,01,13,07,17.60
2019,08,01,13,08,17.60
2019,08,01,13,09,17.60
2019,08,01,13,10,17.60
2019,08,01,13,11,17.60
2019,08,01,13,12,17.60
2019,08,01,13,13,17.60
2019,08,01,13,14,17.60
2019,08,01,13,15,17.60
2019,08,01,13,16,17.60
2019,08,01,13,17,17.60
2019,08,01,13,18,17.60
2019,08,01,13,19,17.70
2019,08,01,13,20,17.70
2019,08,01,13,21,17.70
2019,08,01,13,22,17.70
2019,08,01,13,23,17.70
2019,08,01,13,24,17.70
2019,08,01,13,25,17.70
2019,08,01,13,26,17.70
2019,08,01,13,27,17.60
2019,08,01,13,28,17.60
2019,08,01,13,29,17.60
2019,08,01,13,30,17.60
2019,08,01,13,31,17.50
2019,08,01,13,32,17.50
2019,08,01,13,33,17.50
2019,08,01,13,34,17.50
2019,08,01,13,35,17.50
2019,08,01,13,36,17.50
2019,08,01,13,37,17.50
2019,08,01,13,38,17.50
2019,08,01,13,39,17.50
2019,08,01,13,40,17.50
2019,08,01,13,41,17.50
2019,08,01,13,42,17.50
2019,08,01,13,43,17.50
2019,08,01,13,44,17.60
2019,08,01,13,45,17.60
2019,08,01,13,46,17.60
2019,08,01,13,47,17.60
2019,08,01,13,48,17.60
2019,08,01,13,49,17.60
2019,08,01,13,50,17.60
2019,08,01,13,51,17.60
2019,08,01,13,52,17.60
2019,08,01,13,53,17.60
2019,08,01,13,54,17.70
2019,08,01,13,55,17.70
2019,08,01,13,56,17.70
2019,08,01,13,57,17.70
2019,08,01,13,58,17.70
2019,08,01,13,59,17.70
2019,08,01,14,00,17.70
2019,08,01,14,01,17.70
2019,08,01,14,02,17.70
2019,08,01,14,03,17.70
2019,08,01,14,04,17.70
2019,08,01,14,05,17.80
2019,08,01,14,06,17.80
2019,08,01,14,07,17.80
2019,08,01,14,08,17.80
2019,08,01,14,09,17.80
2019,08,01,14,10,17.80
2019,08,01,14,11,17.80
2019,08,01,14,12,17.80
2019,08,01,14,13,17.80
2019,08,01,14,14,17.80
2019,08,01,14,15,17.80
2019,08,01,14,16,17.80
2019,08,01,14,17,17.80
2019,08,01,14,18,17.80
2019,08,01,14,19,17.80
2019,08,01,14,20,17.80
2019,08,01,14,21,17.80
2019,08,01,14,22,17.80
2019,08,01,14,23,17.80
2019,08,01,14,24,17.80
2019,08,01,14,25,17.80
2019,08,01,14,26,17.80
2019,08,01,14,27,17.80
2019,08,01,14,28,17.80
2019,08,01,14,29,17.80
2019,08,01,14,30,17.80
2019,08,01,14,31,17.80
2019,08,01,14,32,17.80
2019,08,01,14,33,17.80
2019,08,01,14,34,17.80
2019,08,01,14,35,17.90
2019,08,01,14,36,17.90
2019,08,01,14,37,17.90
2019,08,01,14,38,17.90
2019,08,01,14,39,17.90
2019,08,01,14,40,17.90
2019,08,01,14,41,17.90
2019,08,01,14,42,17.90
2019,08,01,14,43,17.90
2019,08,01,14,44,18.00
2019,08,01,14,45,18.00
2019,08,01,14,46,18.00
2019,08,01,14,47,17.90
2019,08,01,14,48,17.90
2019,08,01,14,49,17.90
2019,08,01,14,50,17.90
2019,08,01,14,51,17.90
2019,08,01,14,52,17.90
2019,08,01,14,53,17.90
2019,08,01,14,54,17.90
2019,08,01,14,55,17.80
2019,08,01,14,56,17.80
2019,08,01,14,57,17.70
2019,08,01,14,58,17.70
2019,08,01,14,59,17.70
2019,08,01,15,00,17.70
2019,08,01,15,01,17.70
2019,08,01,15,02,17.70
2019,08,01,15,03,17.60
2019,08,01,15,04,17.60
2019,08,01,15,05,17.60
2019,08,01,15,06,17.60
2019,08,01,15,07,17.60
2019,08,01,15,08,17.60
2019,08,01,15,09,17.60
2019,08,01,15,10,17.60
2019,08,01,15,11,17.60
2019,08,01,15,12,17.50
2019,08,01,15,13,17.60
2019,08,01,15,14,17.60
2019,08,01,15,15,17.60
2019,08,01,15,16,17.60
2019,08,01,15,17,17.60
2019,08,01,15,18,17.60
2019,08,01,15,19,17.60
2019,08,01,15,20,17.60
2019,08,01,15,21,17.60
2019,08,01,15,22,17.50
2019,08,01,15,23,17.50
2019,08,01,15,24,17.50
2019,08,01,15,25,17.50
2019,08,01,15,26,17.50
2019,08,01,15,27,17.50
2019,08,01,15,28,17.60
2019,08,01,15,29,17.60
2019,08,01,15,30,17.60
2019,08,01,15,31,17.60
2019,08,01,15,32,17.50
2019,08,01,15,33,17.50
2019,08,01,15,34,17.50
2019,08,01,15,35,17.50
2019,08,01,15,36,17.50
2019,08,01,15,37,17.50
2019,08,01,15,38,17.50
2019,08,01,15,39,17.50
2019,08,01,15,40,17.50
2019,08,01,15,41,17.50
2019,08,01,15,42,17.50
2019,08,01,15,43,17.50
2019,08,01,15,44,17.50
2019,08,01,15,45,17.50
2019,08,01,15,46,17.50
2019,08,01,15,47,17.40
2019,08,01,15,48,17.40
2019,08,01,15,49,17.40
2019,08,01,15,50,17.40
2019,08,01,15,51,17.40
2019,08,01,15,52,17.40
2019,08,01,15,53,17.40
2019,08,01,15,54,17.30
2019,08,01,15,55,17.30
2019,08,01,15,56,17.30
2019,08,01,15,57,17.30
2019,08,01,15,58,17.20
2019,08,01,15,59,17.20
2019,08,01,16,00,17.20
2019,08,01,16,01,17.10
2019,08,01,16,02,17.20
2019,08,01,16,03,17.10
2019,08,01,16,04,17.10
2019,08,01,16,05,17.10
2019,08,01,16,06,17.10
2019,08,01,16,07,17.10
2019,08,01,16,08,17.10
2019,08,01,16,09,17.10
2019,08,01,16,10,17.10
2019,08,01,16,11,17.10
2019,08,01,16,12,17.10
2019,08,01,16,13,17.10
2019,08,01,16,14,17.10
2019,08,01,16,15,17.20
2019,08,01,16,16,17.20
2019,08,01,16,17,17.20
2019,08,01,16,18,17.20
2019,08,01,16,19,17.20
2019,08,01,16,20,17.20
2019,08,01,16,21,17.20
2019,08,01,16,22,17.20
2019,08,01,16,23,17.20
2019,08,01,16,24,17.20
2019,08,01,16,25,17.20
2019,08,01,16,26,17.30
2019,08,01,16,27,17.30
2019,08,01,16,28,17.30
2019,08,01,16,29,17.20
2019,08,01,16,30,17.20
2019,08,01,16,31,17.20
2019,08,01,16,32,17.20
2019,08,01,16,33,17.30
2019,08,01,16,34,17.30
2019,08,01,16,35,17.30
2019,08,01,16,36,17.30
2019,08,01,16,37,17.30
2019,08,01,16,38,17.30
2019,08,01,16,39,17.30
2019,08,01,16,40,17.30
2019,08,01,16,41,17.30
2019,08,01,16,42,17.30
2019,08,01,16,43,17.30
2019,08,01,16,44,17.30
2019,08,01,16,45,17.30
2019,08,01,16,46,17.30
2019,08,01,16,47,17.30
2019,08,01,16,48,17.30
2019,08,01,16,49,17.30
2019,08,01,16,50,17.30
2019,08,01,16,51,17.30
2019,08,01,16,52,17.30
2019,08,01,16,53,17.30
2019,08,01,16,54,17.30
2019,08,01,16,55,17.30
2019,08,01,16,56,17.30
2019,08,01,16,57,17.20
2019,08,01,16,58,17.20
2019,08,01,16,59,17.20
2019,08,01,17,00,17.20
2019,08,01,17,01,17.20
2019,08,01,17,02,17.20
2019,08,01,17,03,17.20
2019,08,01,17,04,17.20
2019,08,01,17,05,17.20
2019,08,01,17,06,17.20
2019,08,01,17,07,17.20
2019,08,01,17,08,17.30
2019,08,01,17,09,17.30
2019,08,01,17,10,17.30
2019,08,01,17,11,17.30
2019,08,01,17,12,17.30
2019,08,01,17,13,17.30
2019,08,01,17,14,17.40
2019,08,01,17,15,17.40
2019,08,01,17,16,17.40
2019,08,01,17,17,17.40
2019,08,01,17,18,17.40
2019,08,01,17,19,17.40